This is the latest recevied weather packets stored in our database for station/object W3AJR. If no packets are shown the sender has not sent any weather packets the latest 1 day(s).
| Time | Temp. | Humidity | Pressure | Rain* | Wind** | Luminosity | Snow |
|---|---|---|---|---|---|---|---|
| 1778001802 | 27.22° C | 40% | 1010.8 hPa | 0 mm | 1.34 m/s, 197° | 727 W/m² | - |
| 1778001502 | 27.22° C | 39% | 1010.7 hPa | 0 mm | 0.89 m/s, 187° | 734 W/m² | - |
| 1778001199 | 27.22° C | 40% | 1011.1 hPa | 0 mm | 2.68 m/s, 206° | 744 W/m² | - |
| 1778000895 | 26.67° C | 40% | 1011.1 hPa | 0 mm | 3.13 m/s, 199° | 667 W/m² | - |
| 1778000592 | 26.67° C | 41% | 1011.2 hPa | 0 mm | 2.24 m/s, 158° | 693 W/m² | - |
| 1778000288 | 26.67° C | 41% | 1011.1 hPa | 0 mm | 2.24 m/s, 190° | 780 W/m² | - |
| 1777999983 | 26.67° C | 42% | 1010.7 hPa | 0 mm | 1.34 m/s, 180° | 781 W/m² | - |
| 1777999679 | 26.67° C | 43% | 1011 hPa | 0 mm | 1.34 m/s, 193° | 790 W/m² | - |
| 1777999376 | 26.67° C | 42% | 1011.1 hPa | 0 mm | 1.79 m/s, 212° | 791 W/m² | - |
| 1777999075 | 26.67° C | 43% | 1011.3 hPa | 0 mm | 2.68 m/s, 176° | 782 W/m² | - |
| 1777998773 | 26.67° C | 44% | 1011.2 hPa | 0 mm | 1.79 m/s, 221° | 757 W/m² | - |
| 1777998470 | 26.11° C | 43% | 1011.1 hPa | 0 mm | 1.34 m/s, 180° | 741 W/m² | - |
| 1777998167 | 26.11° C | 42% | 1011.4 hPa | 0 mm | 0.89 m/s, 284° | 766 W/m² | - |
| 1777997864 | 25.56° C | 43% | 1011.3 hPa | 0 mm | 0.45 m/s, 226° | 793 W/m² | - |
| 1777997561 | 25.56° C | 43% | 1011.6 hPa | 0 mm | 1.34 m/s, 213° | 802 W/m² | - |
| 1777997258 | 25.56° C | 44% | 1011.6 hPa | 0 mm | 1.34 m/s, 199° | 797 W/m² | - |
| 1777996956 | 26.11° C | 43% | 1011.6 hPa | 0 mm | 2.68 m/s, 183° | 788 W/m² | - |
| 1777996652 | 25.56° C | 45% | 1011.7 hPa | 0 mm | 2.24 m/s, 235° | 776 W/m² | - |
| 1777996349 | 25.56° C | 44% | 1011.9 hPa | 0 mm | 1.34 m/s, 208° | 803 W/m² | - |
| 1777996045 | 26.11° C | 46% | 1012 hPa | 0 mm | 0.89 m/s, 204° | 850 W/m² | - |
| 1777995741 | 26.11° C | 46% | 1012 hPa | 0 mm | 1.34 m/s, 195° | 830 W/m² | - |
| 1777995438 | 25° C | 46% | 1011.9 hPa | 0 mm | 0.89 m/s, 66° | 845 W/m² | - |
| 1777995135 | 25° C | 45% | 1012.1 hPa | 0 mm | 2.24 m/s, 217° | 855 W/m² | - |
| 1777994832 | 25° C | 46% | 1012.3 hPa | 0 mm | 1.34 m/s, 202° | 855 W/m² | - |
| 1777994529 | 25° C | 45% | 1012.2 hPa | 0 mm | 3.58 m/s, 184° | 864 W/m² | - |
* Rain latest hour (hover to see other rain measurements)
** Current wind speed in m/s (hover to see current wind gust speed)